TimePST,TemperatureF,Dew PointF,Humidity,Sea Level PressureIn,VisibilityMPH,Wind Direction,Wind SpeedMPH,Gust SpeedMPH,PrecipitationIn,Events,Conditions,WindDirDegrees,DateUTC
12:15 AM,24.8,21.2,86,30.37,10.0,NNE,3.5,-,N/A,,Clear,20,2013-12-08 08:15:00
12:35 AM,24.8,23.0,93,30.37,10.0,Calm,Calm,-,N/A,,Clear,0,2013-12-08 08:35:00
12:55 AM,24.8,21.2,86,30.37,10.0,East,9.2,-,N/A,,Clear,90,2013-12-08 08:55:00
1:15 AM,26.6,21.2,80,30.37,10.0,ESE,8.1,-,N/A,,Clear,120,2013-12-08 09:15:00
1:35 AM,26.6,21.2,80,30.37,10.0,East,8.1,-,N/A,,Clear,90,2013-12-08 09:35:00
1:55 AM,26.6,21.2,80,30.38,10.0,East,15.0,18.4,N/A,,Clear,100,2013-12-08 09:55:00
2:15 AM,26.6,21.2,80,30.39,10.0,East,10.4,-,N/A,,Clear,90,2013-12-08 10:15:00
2:35 AM,24.8,21.2,86,30.39,10.0,East,5.8,-,N/A,,Clear,90,2013-12-08 10:35:00
2:55 AM,24.8,23.0,93,30.40,10.0,Calm,Calm,-,N/A,,Clear,0,2013-12-08 10:55:00
3:15 AM,24.8,21.2,86,30.40,10.0,ESE,4.6,-,N/A,,Clear,120,2013-12-08 11:15:00
3:35 AM,24.8,21.2,86,30.40,10.0,East,5.8,-,N/A,,Clear,100,2013-12-08 11:35:00
3:55 AM,26.6,21.2,80,30.40,10.0,East,6.9,-,N/A,,Clear,100,2013-12-08 11:55:00
4:15 AM,24.8,21.2,86,30.40,10.0,East,6.9,-,N/A,,Clear,100,2013-12-08 12:15:00
4:35 AM,24.8,21.2,86,30.41,10.0,Calm,Calm,-,N/A,,Clear,0,2013-12-08 12:35:00
4:55 AM,24.8,21.2,86,30.41,10.0,Calm,Calm,-,N/A,,Clear,0,2013-12-08 12:55:00
5:15 AM,24.8,21.2,86,30.41,10.0,ESE,10.4,-,N/A,,Clear,110,2013-12-08 13:15:00
5:35 AM,26.6,21.2,80,30.41,10.0,ESE,8.1,-,N/A,,Clear,110,2013-12-08 13:35:00
5:55 AM,24.8,21.2,86,30.42,10.0,East,5.8,-,N/A,,Clear,100,2013-12-08 13:55:00
6:15 AM,24.8,21.2,86,30.43,10.0,East,6.9,-,N/A,,Clear,100,2013-12-08 14:15:00
6:35 AM,24.8,21.2,86,30.43,10.0,NE,3.5,-,N/A,,Clear,40,2013-12-08 14:35:00
6:55 AM,26.6,21.2,80,30.44,10.0,Calm,Calm,-,N/A,,Clear,0,2013-12-08 14:55:00
7:15 AM,24.8,21.2,86,30.44,10.0,ESE,4.6,-,N/A,,Clear,110,2013-12-08 15:15:00
7:35 AM,24.8,21.2,86,30.45,10.0,ESE,9.2,-,N/A,,Clear,110,2013-12-08 15:35:00
7:55 AM,24.8,21.2,86,30.46,10.0,East,10.4,-,N/A,,Clear,100,2013-12-08 15:55:00
8:15 AM,26.6,21.2,80,30.46,10.0,East,11.5,-,N/A,,Clear,100,2013-12-08 16:15:00
8:35 AM,26.6,21.2,80,30.47,10.0,ENE,5.8,-,N/A,,Clear,60,2013-12-08 16:35:00
8:55 AM,28.4,23.0,80,30.48,10.0,NNE,4.6,-,N/A,,Clear,30,2013-12-08 16:55:00
9:15 AM,28.4,21.2,74,30.47,10.0,ENE,4.6,-,N/A,,Clear,70,2013-12-08 17:15:00
9:35 AM,28.4,21.2,74,30.47,10.0,East,9.2,-,N/A,,Clear,90,2013-12-08 17:35:00
9:55 AM,30.2,21.2,69,30.47,10.0,East,12.7,-,N/A,,Unknown,90,2013-12-08 17:55:00
10:15 AM,30.2,21.2,69,30.47,10.0,East,11.5,-,N/A,,Clear,100,2013-12-08 18:15:00
10:35 AM,32.0,21.2,64,30.47,10.0,East,8.1,-,N/A,,Clear,100,2013-12-08 18:35:00
10:55 AM,32.0,21.2,64,30.47,10.0,NNE,5.8,-,N/A,,Clear,20,2013-12-08 18:55:00
11:15 AM,32.0,19.4,60,30.48,10.0,NNE,3.5,-,N/A,,Clear,20,2013-12-08 19:15:00
11:35 AM,35.6,19.4,52,30.47,10.0,ESE,3.5,-,N/A,,Clear,110,2013-12-08 19:35:00
11:55 AM,35.6,19.4,52,30.46,10.0,ESE,4.6,-,N/A,,Clear,110,2013-12-08 19:55:00
12:15 PM,35.6,19.4,52,30.46,10.0,NNW,3.5,-,N/A,,Clear,340,2013-12-08 20:15:00
12:35 PM,37.4,17.6,45,30.46,10.0,Calm,Calm,-,N/A,,Clear,0,2013-12-08 20:35:00
12:55 PM,37.4,15.8,41,30.45,10.0,ENE,5.8,-,N/A,,Clear,60,2013-12-08 20:55:00
1:15 PM,39.2,14.0,36,30.44,10.0,East,8.1,-,N/A,,Clear,90,2013-12-08 21:15:00
1:35 PM,39.2,15.8,39,30.44,10.0,ESE,8.1,-,N/A,,Clear,110,2013-12-08 21:35:00
1:55 PM,39.2,15.8,39,30.44,10.0,ESE,6.9,-,N/A,,Clear,110,2013-12-08 21:55:00
2:15 PM,39.2,15.8,39,30.44,10.0,ESE,5.8,-,N/A,,Clear,110,2013-12-08 22:15:00
2:35 PM,39.2,14.0,36,30.45,10.0,East,5.8,-,N/A,,Clear,90,2013-12-08 22:35:00
2:55 PM,39.2,14.0,36,30.46,10.0,NNE,4.6,-,N/A,,Clear,30,2013-12-08 22:55:00
3:15 PM,39.2,17.6,42,30.46,10.0,North,10.4,-,N/A,,Clear,360,2013-12-08 23:15:00
3:35 PM,37.4,17.6,45,30.47,10.0,North,11.5,-,N/A,,Clear,360,2013-12-08 23:35:00
3:55 PM,37.4,19.4,48,30.48,10.0,North,10.4,-,N/A,,Clear,360,2013-12-08 23:55:00
4:15 PM,35.6,19.4,52,30.49,10.0,North,9.2,-,N/A,,Clear,360,2013-12-09 00:15:00
4:35 PM,33.8,21.2,60,30.49,10.0,North,8.1,-,N/A,,Clear,10,2013-12-09 00:35:00
4:55 PM,33.8,21.2,60,30.50,10.0,North,8.1,-,N/A,,Clear,360,2013-12-09 00:55:00
5:15 PM,33.8,21.2,60,30.50,10.0,North,10.4,-,N/A,,Clear,360,2013-12-09 01:15:00
5:35 PM,33.8,21.2,60,30.51,10.0,North,9.2,-,N/A,,Mostly Cloudy,10,2013-12-09 01:35:00
5:55 PM,33.8,23.0,65,30.51,10.0,NNE,3.5,-,N/A,,Overcast,30,2013-12-09 01:55:00
6:15 PM,32.0,21.2,64,30.52,10.0,NNE,4.6,-,N/A,,Mostly Cloudy,20,2013-12-09 02:15:00
6:35 PM,30.2,23.0,75,30.53,10.0,Calm,Calm,-,N/A,,Mostly Cloudy,0,2013-12-09 02:35:00
6:55 PM,30.2,23.0,75,30.53,10.0,ESE,3.5,-,N/A,,Overcast,120,2013-12-09 02:55:00
7:15 PM,30.2,24.8,80,30.53,10.0,SE,5.8,-,N/A,,Overcast,130,2013-12-09 03:15:00
7:35 PM,32.0,23.0,69,30.54,10.0,ESE,4.6,-,N/A,,Overcast,120,2013-12-09 03:35:00
7:55 PM,32.0,21.2,64,30.54,10.0,ESE,4.6,-,N/A,,Overcast,120,2013-12-09 03:55:00
8:15 PM,32.0,21.2,64,30.55,10.0,ESE,8.1,-,N/A,,Overcast,110,2013-12-09 04:15:00
8:35 PM,32.0,21.2,64,30.55,10.0,ESE,6.9,-,N/A,,Overcast,110,2013-12-09 04:35:00
8:55 PM,32.0,21.2,64,30.55,10.0,ESE,5.8,-,N/A,,Overcast,110,2013-12-09 04:55:00
9:15 PM,32.0,19.4,60,30.55,10.0,ESE,8.1,-,N/A,,Overcast,120,2013-12-09 05:15:00
9:35 PM,32.0,19.4,60,30.55,10.0,ESE,8.1,-,N/A,,Overcast,120,2013-12-09 05:35:00
9:55 PM,30.2,19.4,64,30.56,10.0,ESE,8.1,-,N/A,,Overcast,120,2013-12-09 05:55:00
10:15 PM,30.2,19.4,64,30.56,10.0,ESE,8.1,-,N/A,,Overcast,120,2013-12-09 06:15:00
10:35 PM,30.2,19.4,64,30.56,10.0,SE,6.9,-,N/A,,Overcast,130,2013-12-09 06:35:00
10:55 PM,30.2,19.4,64,30.57,10.0,SE,5.8,-,N/A,,Overcast,130,2013-12-09 06:55:00
11:15 PM,30.2,19.4,64,30.57,10.0,SE,6.9,-,N/A,,Overcast,130,2013-12-09 07:15:00
11:35 PM,30.2,19.4,64,30.57,10.0,ESE,8.1,-,N/A,,Overcast,120,2013-12-09 07:35:00
11:55 PM,28.4,19.4,69,30.57,10.0,SSE,5.8,-,N/A,,Scattered Clouds,150,2013-12-09 07:55:00